Flag for Australia Weather past 2 weeks in Canberra, Australian Capital Territory, Australia

Now
55 °F

Scattered clouds.


Feels Like: 54 °F
Forecast: 32 / 52 °F
Wind: 6 mph from Northeast

Location: Canberra Airport

Current Time: Jul 23, 2014 at 2:37:47 PM

Latest Report: Jul 23, 2014 at 2:00 PM


Visibility: N/A

Pressure: 30.15 "Hg

Humidity: 51%

Dew point: 37 °F

Location of CanberraLocation

Historic Weather in Canberra — Graph

°F

Canberra temperature yesterday

Maximum temperature yesterday: 55 °F (at 2:30 PM)
Minimum temperature yesterday: 34 °F (at 12:00 AM)
Average temperature yesterday: 43 °F

Past Weeks' High & Low Weather Summary

 TemperatureHumidityPressure
High57 °F (Jul 14, 3:00 PM)100% (Jul 8, 11:00 PM)30.51 "Hg (Jul 8, 11:00 PM)
Low23 °F (Jul 20, 7:00 AM)35% (Jul 20, 2:00 PM)29.56 "Hg (Jul 9, 2:00 PM)
Average42 °F79%30.08 "Hg
* Reported Jul 8 1:00 PM — Jul 23 1:00 PM, Canberra, Weather by CustomWeather, © 2014

Note: Actual official high and low records may vary slightly from our data, if they occured in-between our weather recording intervals... More about our weather records

Advertising

Canberra weather history for previous 24 hours

 ConditionsComfort  
Time TempWeatherWind HumidityBarometerVisibility
1:00 PM
Jul 23
55 °FScattered clouds.6 mph63%30.18 "HgN/A
12:30 PM54 °FScattered clouds.6 mph67%30.18 "HgN/A
12:00 PM52 °FScattered clouds.5 mph72%30.21 "HgN/A
11:30 AM52 °FPassing clouds.5 mph67%30.21 "HgN/A
11:00 AM50 °FPassing clouds.3 mph67%30.24 "HgN/A
10:30 AM48 °FSunny.3 mph71%30.27 "Hg10 mi
9:30 AM41 °FPassing clouds.3 mph87%30.27 "HgN/A
9:00 AM39 °FHaze.2 mph93%30.27 "HgN/A
3:02 AM30 °FPassing clouds.No wind100%30.21 "HgN/A
2:00 AM30 °FChilly.No wind100%30.24 "Hg0 mi
1:04 AM32 °FPassing clouds.No wind93%30.24 "HgN/A
1:00 AM32 °FPassing clouds.No wind100%30.24 "HgN/A
12:30 AM32 °FPassing clouds.3 mph100%30.24 "HgN/A
12:00 AM32 °FClear.No wind93%30.24 "Hg1 mi
11:30 PM
Jul 22
34 °FClear.3 mph93%30.24 "HgN/A
11:00 PM36 °FClear.5 mph93%30.24 "HgN/A
10:30 PM39 °FClear.5 mph100%30.24 "HgN/A
10:00 PM36 °FPassing clouds.6 mph100%30.24 "HgN/A
9:30 PM36 °FPassing clouds.3 mph93%30.24 "HgN/A
9:00 PM36 °FPassing clouds.No wind93%30.24 "HgN/A
8:30 PM37 °FPassing clouds.No wind93%30.24 "HgN/A
8:00 PM37 °FPassing clouds.No wind93%30.21 "HgN/A
7:30 PM39 °FPassing clouds.1 mph93%30.21 "HgN/A
7:00 PM39 °FPassing clouds.6 mph93%30.21 "HgN/A
6:30 PM39 °FPassing clouds.2 mph81%30.21 "HgN/A
6:00 PM39 °FPassing clouds.5 mph81%30.21 "HgN/A
5:30 PM43 °FPassing clouds.5 mph76%30.21 "HgN/A
5:00 PM52 °FPassing clouds.No wind54%30.18 "HgN/A
4:30 PM55 °FPassing clouds.5 mph47%30.18 "HgN/A
4:00 PM55 °FPassing clouds.5 mph55%30.18 "HgN/A
3:30 PM55 °FPassing clouds.5 mph51%30.18 "HgN/A
3:00 PM55 °FPassing clouds.3 mph55%30.18 "HgN/A
2:30 PM55 °FPassing clouds.2 mph59%30.18 "HgN/A
2:00 PM54 °FPassing clouds.5 mph63%30.18 "HgN/A
Weather by CustomWeather, © 2014

See weather overviewHow to use our weather pages